RASSVET-3 4

导读 | 豆包AI

RASSVET-3 4(NORAD编号68363)是俄罗斯Buro 1440公司主导的“黎明-3”(Rassvet-3)低轨互联网卫星星座中的一颗,属于2026年3月23日俄罗斯秘密发射的首批16颗“黎明-3”卫星之一。该卫星单星质量约370公斤,发射后进入近地点290公里、远地点324公里、倾角82.3度的初始轨道,后续将完成测试并转移至目标轨道,旨在提供低轨互联网服务,是俄罗斯自主建设的“星链”同类项目的正式组网卫星。

Basic Information
目录编号:
68363
目录名称:
RASSVET-3 4
国际标识:
2026-061D
轨道中心:
EARTH
卫星名称:
RASSVET-3 4
卫星全名:
RASSVET-3 4
卫星状态:
在轨 (已飞行38 天)
发射日期:
2026-03-23 UTC
国别 :
俄罗斯(独联体) (CIS)
星等 :
--
Orbit Information
数据来源 国际轨道数据
星历时间: 2026-04-30T05:39:11+0800
10小时前
查看轨道信息
半长轴: 6666.384km
偏心率: 0.0018254
轨道倾角: 82.296°
近地点辐角 281.320°
升交点赤经 66.510°
平近点角 78.602°
近地点: 276.078km
远地点: 300.416km
周期: 90.281分钟
每日圈数: 15.950244
Detailed Information
使用方式:
暂无
2D Orbit Map
3D Orbit Map
Orbit Altitude Analysis Chart
Orbit Inclination Analysis Chart
Orbit Comprehensive Analysis Chart
View Comprehensive Chart